,,,PA_Meas_PMT16A,,PR_Meas_QMR101_102,,RH_Meas_QMH101,,SR_Meas_QMS101,,TA_Meas_QMH101,,GenWind,,GenWind,
date,time,status,PA,status,PR,status,RH,status,SR,status,TA,status,DirAvg,status,SpdAvg,
2008-09-09, 00:00:05,VALID,1008.52,VALID,0,VALID,94.2543,VALID,0,VALID,24.1793,VALID,64,VALID,0.291406,
2008-09-09, 00:01:05,VALID,1008.55,VALID,0,VALID,94.2391,VALID,0.105969,VALID,24.1599,VALID,64,VALID,0.476563,
2008-09-09, 00:02:05,VALID,1008.54,VALID,0,VALID,94.2467,VALID,0,VALID,24.1599,VALID,64,VALID,0.212891,
2008-09-09, 00:03:05,VALID,1008.54,VALID,0,VALID,94.2696,VALID,0,VALID,24.1812,VALID,64,VALID,0.00078125,
2008-09-09, 00:04:05,VALID,1008.54,VALID,0,VALID,94.3001,VALID,0,VALID,24.1599,VALID,64,VALID,0,
2008-09-09, 00:05:05,VALID,1008.57,VALID,0,VALID,94.3077,VALID,0.105969,VALID,24.1404,VALID,64,VALID,0,
2008-09-09, 00:06:05,VALID,1008.58,VALID,0,VALID,94.3229,VALID,0.105969,VALID,24.1599,VALID,5,VALID,0.237891,
2008-09-09, 00:07:05,VALID,1008.55,VALID,0,VALID,94.3306,VALID,0.105969,VALID,24.1404,VALID,357,VALID,0,
2008-09-09, 00:08:05,VALID,1008.54,VALID,0,VALID,94.3153,VALID,0.105969,VALID,24.1404,VALID,356,VALID,0.371094,
2008-09-09, 00:09:05,VALID,1008.56,VALID,0,VALID,94.3229,VALID,0,VALID,24.1404,VALID,355,VALID,0.0730469,
2008-09-09, 00:10:05,VALID,1008.52,VALID,0,VALID,94.3458,VALID,0,VALID,24.1209,VALID,355,VALID,0.0167969,
2008-09-09, 00:11:05,VALID,1008.53,VALID,0,VALID,94.3839,VALID,0,VALID,24.1209,VALID,355,VALID,0,
2008-09-09, 00:12:05,VALID,1008.5,VALID,0,VALID,94.3611,VALID,0,VALID,24.1209,VALID,355,VALID,0,
2008-09-09, 00:13:05,VALID,1008.48,VALID,0,VALID,94.3763,VALID,0,VALID,24.1209,VALID,355,VALID,0,
2008-09-09, 00:14:05,VALID,1008.48,VALID,0,VALID,94.3839,VALID,0.105969,VALID,24.1014,VALID,355,VALID,0,
2008-09-09, 00:15:05,VALID,1008.46,VALID,0,VALID,94.3992,VALID,0,VALID,24.1014,VALID,355,VALID,0,
2008-09-09, 00:16:05,VALID,1008.4,VALID,0,VALID,94.4221,VALID,0,VALID,24.1014,VALID,355,VALID,0,
2008-09-09, 00:17:05,VALID,1008.42,VALID,0,VALID,94.4297,VALID,0.105969,VALID,24.0819,VALID,355,VALID,0,
2008-09-09, 00:18:05,VALID,1008.37,VALID,0,VALID,94.4297,VALID,0.105969,VALID,24.0819,VALID,355,VALID,0,
2008-09-09, 00:19:05,VALID,1008.37,VALID,0,VALID,94.4602,VALID,0,VALID,24.0819,VALID,355,VALID,0,
2008-09-09, 00:20:05,VALID,1008.34,VALID,0,VALID,94.4907,VALID,0.105969,VALID,24.0819,VALID,355,VALID,0,
2008-09-09, 00:21:05,VALID,1008.32,VALID,0,VALID,94.4983,VALID,0.105969,VALID,24.0819,VALID,355,VALID,0,
2008-09-09, 00:22:05,VALID,1008.29,VALID,0,VALID,94.5136,VALID,0,VALID,24.0624,VALID,355,VALID,0,
2008-09-09, 00:23:05,VALID,1008.29,VALID,0,VALID,94.5288,VALID,0,VALID,24.0624,VALID,355,VALID,0.221875,
2008-09-09, 00:24:05,VALID,1008.3,VALID,0,VALID,94.5517,VALID,0.105969,VALID,24.0624,VALID,355,VALID,0.237891,
2008-09-09, 00:25:05,VALID,1008.27,VALID,0,VALID,94.5517,VALID,0,VALID,24.0819,VALID,355,VALID,0.246875,
2008-09-09, 00:26:05,VALID,1008.28,VALID,0,VALID,94.567,VALID,0.105969,VALID,24.0624,VALID,355,VALID,0.205859,
2008-09-09, 00:27:05,VALID,1008.26,VALID,0,VALID,94.5746,VALID,0,VALID,24.0624,VALID,355,VALID,0.114844,
2008-09-09, 00:28:05,VALID,1008.23,VALID,0,VALID,94.567,VALID,0.105969,VALID,24.0429,VALID,355,VALID,0,
2008-09-09, 00:29:05,VALID,1008.24,VALID,0,VALID,94.5517,VALID,0,VALID,24.0624,VALID,355,VALID,0,
2008-09-09, 00:30:05,VALID,1008.21,VALID,0,VALID,94.5441,VALID,0.105969,VALID,24.0624,VALID,355,VALID,0,
2008-09-09, 00:31:05,VALID,1008.19,VALID,0,VALID,94.5365,VALID,0.105969,VALID,24.0429,VALID,355,VALID,0,
2008-09-09, 00:32:05,VALID,1008.19,VALID,0,VALID,94.567,VALID,0,VALID,24.0429,VALID,355,VALID,0,
2008-09-09, 00:33:05,VALID,1008.2,VALID,0,VALID,94.5746,VALID,0.105969,VALID,24.0429,VALID,355,VALID,0,
2008-09-09, 00:34:05,VALID,1008.19,VALID,0,VALID,94.6051,VALID,0,VALID,24.0429,VALID,355,VALID,0.0261719,
2008-09-09, 00:35:05,VALID,1008.17,VALID,0,VALID,94.6127,VALID,0.105969,VALID,24.0429,VALID,355,VALID,0,
2008-09-09, 00:36:05,VALID,1008.19,VALID,0,VALID,94.6203,VALID,0.105969,VALID,24.0235,VALID,355,VALID,0.213281,
2008-09-09, 00:37:05,VALID,1008.18,VALID,0,VALID,94.628,VALID,0,VALID,24.0235,VALID,355,VALID,0.207813,
2008-09-09, 00:38:05,VALID,1008.17,VALID,0,VALID,94.628,VALID,0.105969,VALID,24.0235,VALID,355,VALID,0.0597656,
2008-09-09, 00:39:05,VALID,1008.19,VALID,0,VALID,94.6203,VALID,0.105969,VALID,24.004,VALID,355,VALID,0.096875,
2008-09-09, 00:40:05,VALID,1008.16,VALID,0,VALID,94.6127,VALID,0.105969,VALID,24.004,VALID,355,VALID,0,
2008-09-09, 00:41:05,VALID,1008.13,VALID,0,VALID,94.6127,VALID,0,VALID,24.004,VALID,355,VALID,0,
2008-09-09, 00:42:05,VALID,1008.15,VALID,0,VALID,94.6127,VALID,0,VALID,24.004,VALID,355,VALID,0,
2008-09-09, 00:43:05,VALID,1008.18,VALID,0,VALID,94.6127,VALID,0.105969,VALID,24.004,VALID,355,VALID,0,
2008-09-09, 00:44:05,VALID,1008.14,VALID,0,VALID,94.6356,VALID,0.105969,VALID,24.0448,VALID,355,VALID,0,
2008-09-09, 00:45:05,VALID,1008.17,VALID,0,VALID,94.6356,VALID,0,VALID,23.9632,VALID,355,VALID,0,
2008-09-09, 00:46:05,VALID,1008.16,VALID,0,VALID,94.628,VALID,0,VALID,23.9845,VALID,355,VALID,0,
2008-09-09, 00:47:05,VALID,1008.15,VALID,0,VALID,94.6585,VALID,0,VALID,23.9863,VALID,355,VALID,0,
2008-09-09, 00:48:05,VALID,1008.13,VALID,0,VALID,94.6585,VALID,0,VALID,24.0076,VALID,355,VALID,0,
2008-09-09, 00:49:05,VALID,1008.13,VALID,0,VALID,94.689,VALID,0,VALID,23.9668,VALID,355,VALID,0,
2008-09-09, 00:50:05,VALID,1008.14,VALID,0,VALID,94.6814,VALID,0,VALID,24.0076,VALID,355,VALID,0,
2008-09-09, 00:51:05,VALID,1008.14,VALID,0,VALID,94.6814,VALID,0,VALID,23.9668,VALID,355,VALID,0,
2008-09-09, 00:52:05,VALID,1008.12,VALID,0,VALID,94.7042,VALID,0,VALID,23.9863,VALID,355,VALID,0,
2008-09-09, 00:53:05,VALID,1008.11,VALID,0,VALID,94.6966,VALID,0,VALID,23.9863,VALID,355,VALID,0,
2008-09-09, 00:54:05,VALID,1008.13,VALID,0,VALID,94.689,VALID,0,VALID,23.9668,VALID,355,VALID,0,
2008-09-09, 00:55:05,VALID,1008.11,VALID,0,VALID,94.6966,VALID,0,VALID,23.9668,VALID,355,VALID,0,
2008-09-09, 00:56:05,VALID,1008.07,VALID,0,VALID,94.7119,VALID,0,VALID,23.9668,VALID,355,VALID,0,
2008-09-09, 00:57:05,VALID,1008.08,VALID,0,VALID,94.6814,VALID,0,VALID,23.9668,VALID,355,VALID,0,
2008-09-09, 00:58:05,VALID,1008.08,VALID,0,VALID,94.6661,VALID,0,VALID,23.9473,VALID,355,VALID,0,
2008-09-09, 00:59:05,VALID,1008.1,VALID,0,VALID,94.6661,VALID,0,VALID,23.9473,VALID,355,VALID,0,
2008-09-09, 01:00:05,VALID,1008.06,VALID,0,VALID,94.6737,VALID,0,VALID,23.9473,VALID,355,VALID,0,
2008-09-09, 01:01:05,VALID,1008.04,VALID,0,VALID,94.6814,VALID,0,VALID,23.9686,VALID,355,VALID,0,
2008-09-09, 01:02:05,VALID,1008.04,VALID,0,VALID,94.6966,VALID,0,VALID,23.9455,VALID,355,VALID,0,
2008-09-09, 01:03:05,VALID,1008.05,VALID,0,VALID,94.7424,VALID,0,VALID,23.926,VALID,355,VALID,0,
2008-09-09, 01:04:05,VALID,1008.06,VALID,0,VALID,94.7424,VALID,0,VALID,23.9668,VALID,355,VALID,0,
2008-09-09, 01:05:05,VALID,1008.03,VALID,0,VALID,94.7424,VALID,0,VALID,23.9455,VALID,355,VALID,0.219922,
2008-09-09, 01:06:05,VALID,1008.06,VALID,0,VALID,94.7805,VALID,0,VALID,23.9455,VALID,355,VALID,0.139062,
2008-09-09, 01:07:05,VALID,1008.04,VALID,0,VALID,94.7805,VALID,0,VALID,23.9455,VALID,355,VALID,0,
2008-09-09, 01:08:05,VALID,1008.04,VALID,0,VALID,94.7957,VALID,0,VALID,23.9455,VALID,355,VALID,0,
2008-09-09, 01:09:05,VALID,1008.03,VALID,0,VALID,94.7805,VALID,0,VALID,23.9455,VALID,355,VALID,0.278516,
2008-09-09, 01:10:05,VALID,1008.02,VALID,0,VALID,94.7652,VALID,0.105969,VALID,23.926,VALID,355,VALID,0.363281,
2008-09-09, 01:11:05,VALID,1008.02,VALID,0,VALID,94.7576,VALID,0.105969,VALID,23.9065,VALID,355,VALID,0.339453,
2008-09-09, 01:12:05,VALID,1008.01,VALID,0,VALID,94.7424,VALID,0,VALID,23.8871,VALID,355,VALID,0.320313,
2008-09-09, 01:13:05,VALID,1008.01,VALID,0,VALID,94.7652,VALID,0.105969,VALID,23.8871,VALID,355,VALID,0.225391,
2008-09-09, 01:14:05,VALID,1007.97,VALID,0,VALID,94.7347,VALID,0.105969,VALID,23.8889,VALID,355,VALID,0.232031,
2008-09-09, 01:15:05,VALID,1007.99,VALID,0,VALID,94.7729,VALID,0,VALID,23.8676,VALID,355,VALID,0.0277344,
2008-09-09, 01:16:05,VALID,1007.99,VALID,0,VALID,94.7729,VALID,0.105969,VALID,23.8268,VALID,355,VALID,0.0210938,
2008-09-09, 01:17:05,VALID,1008,VALID,0,VALID,94.7957,VALID,0,VALID,23.8481,VALID,355,VALID,0,
2008-09-09, 01:18:05,VALID,1008,VALID,0,VALID,94.811,VALID,0.105969,VALID,23.8481,VALID,355,VALID,0,
2008-09-09, 01:19:05,VALID,1008,VALID,0,VALID,94.8262,VALID,0,VALID,23.8481,VALID,355,VALID,0.0371094,
2008-09-09, 01:20:05,VALID,1008,VALID,0,VALID,94.8339,VALID,0,VALID,23.8889,VALID,355,VALID,0,
2008-09-09, 01:21:05,VALID,1008,VALID,0,VALID,94.8644,VALID,0.105969,VALID,23.8676,VALID,355,VALID,0,
2008-09-09, 01:22:05,VALID,1007.97,VALID,0,VALID,94.8796,VALID,0.105969,VALID,23.8481,VALID,355,VALID,0,
2008-09-09, 01:23:05,VALID,1007.96,VALID,0,VALID,94.8949,VALID,0.105969,VALID,23.8889,VALID,355,VALID,0,
2008-09-09, 01:24:05,VALID,1007.94,VALID,0,VALID,94.9178,VALID,0.105969,VALID,23.8481,VALID,355,VALID,0,
2008-09-09, 01:25:05,VALID,1007.93,VALID,0,VALID,94.9101,VALID,0,VALID,23.8481,VALID,355,VALID,0,
2008-09-09, 01:26:05,VALID,1007.97,VALID,0,VALID,94.933,VALID,0.105969,VALID,23.8286,VALID,355,VALID,0.0363281,
2008-09-09, 01:27:05,VALID,1007.93,VALID,0,VALID,94.9254,VALID,0.105969,VALID,23.8694,VALID,355,VALID,0.08125,
2008-09-09, 01:28:05,VALID,1007.95,VALID,0,VALID,94.9178,VALID,0.105969,VALID,23.8286,VALID,355,VALID,0,
2008-09-09, 01:29:05,VALID,1007.96,VALID,0,VALID,94.9254,VALID,0.105969,VALID,23.8286,VALID,355,VALID,0,
2008-09-09, 01:30:05,VALID,1007.92,VALID,0,VALID,94.9483,VALID,0.105969,VALID,23.8286,VALID,355,VALID,0,
2008-09-09, 01:31:05,VALID,1007.94,VALID,0,VALID,94.9406,VALID,0.105969,VALID,23.8286,VALID,355,VALID,0,
2008-09-09, 01:32:05,VALID,1007.97,VALID,0,VALID,94.933,VALID,0,VALID,23.8109,VALID,355,VALID,0,
2008-09-09, 01:33:05,VALID,1007.97,VALID,0,VALID,94.9406,VALID,0,VALID,23.8109,VALID,355,VALID,0,
2008-09-09, 01:34:05,VALID,1007.99,VALID,0,VALID,94.9483,VALID,0.105969,VALID,23.8091,VALID,355,VALID,0,
2008-09-09, 01:35:05,VALID,1007.98,VALID,0,VALID,94.9559,VALID,0,VALID,23.8091,VALID,355,VALID,0,
2008-09-09, 01:36:05,VALID,1007.96,VALID,0,VALID,94.9559,VALID,0,VALID,23.7896,VALID,355,VALID,0.158594,
2008-09-09, 01:37:05,VALID,1007.96,VALID,0,VALID,94.9559,VALID,0.105969,VALID,23.8091,VALID,355,VALID,0.136328,
2008-09-09, 01:38:05,VALID,1007.97,VALID,0,VALID,94.9483,VALID,0,VALID,23.7896,VALID,355,VALID,0.136328,
2008-09-09, 01:39:05,VALID,1007.98,VALID,0,VALID,94.9559,VALID,0.105969,VALID,23.7701,VALID,355,VALID,0.192969,
2008-09-09, 01:40:05,VALID,1007.95,VALID,0,VALID,94.9559,VALID,0.105969,VALID,23.7896,VALID,355,VALID,0.117188,
2008-09-09, 01:41:05,VALID,1007.94,VALID,0,VALID,94.933,VALID,0,VALID,23.7507,VALID,355,VALID,0,
2008-09-09, 01:42:05,VALID,1007.96,VALID,0,VALID,94.9483,VALID,0.105969,VALID,23.7507,VALID,355,VALID,0,
2008-09-09, 01:43:05,VALID,1007.98,VALID,0,VALID,94.9559,VALID,0.105969,VALID,23.7507,VALID,355,VALID,0,
2008-09-09, 01:44:05,VALID,1007.96,VALID,0,VALID,94.9559,VALID,0.105969,VALID,23.7507,VALID,355,VALID,0,
2008-09-09, 01:45:05,VALID,1007.94,VALID,0,VALID,94.9559,VALID,0,VALID,23.7312,VALID,355,VALID,0,
2008-09-09, 01:46:05,VALID,1007.97,VALID,0,VALID,94.9711,VALID,0,VALID,23.7525,VALID,355,VALID,0,
2008-09-09, 01:47:05,VALID,1007.94,VALID,0,VALID,94.9711,VALID,0.105969,VALID,23.7312,VALID,355,VALID,0,
2008-09-09, 01:48:05,VALID,1007.94,VALID,0,VALID,94.9864,VALID,0.105969,VALID,23.7507,VALID,355,VALID,0,
2008-09-09, 01:49:04,VALID,1007.93,VALID,0,VALID,94.9864,VALID,0,VALID,23.7312,VALID,355,VALID,0,
2008-09-09, 01:50:04,VALID,1007.93,VALID,0,VALID,94.994,VALID,0.105969,VALID,23.7312,VALID,355,VALID,0,
2008-09-09, 01:51:04,VALID,1007.91,VALID,0,VALID,95.0093,VALID,0,VALID,23.7312,VALID,355,VALID,0,
2008-09-09, 01:52:04,VALID,1007.93,VALID,0,VALID,95.0321,VALID,0,VALID,23.7312,VALID,355,VALID,0.0429688,
2008-09-09, 01:53:04,VALID,1007.93,VALID,0,VALID,95.0169,VALID,0.105969,VALID,23.7312,VALID,355,VALID,0,
2008-09-09, 01:54:04,VALID,1007.93,VALID,0,VALID,95.0245,VALID,0,VALID,23.7117,VALID,355,VALID,0,
2008-09-09, 01:55:04,VALID,1007.92,VALID,0,VALID,95.0245,VALID,0,VALID,23.733,VALID,355,VALID,0,
2008-09-09, 01:56:04,VALID,1007.97,VALID,0,VALID,95.0245,VALID,0.105969,VALID,23.7312,VALID,355,VALID,0,
2008-09-09, 01:57:04,VALID,1007.94,VALID,0,VALID,95.0474,VALID,0,VALID,23.7135,VALID,355,VALID,0,
2008-09-09, 01:58:04,VALID,1007.98,VALID,0,VALID,95.0398,VALID,0.105969,VALID,23.733,VALID,355,VALID,0,
2008-09-09, 01:59:04,VALID,1007.97,VALID,0,VALID,95.0474,VALID,0,VALID,23.7117,VALID,355,VALID,0,
2008-09-09, 02:00:04,VALID,1007.98,VALID,0,VALID,95.055,VALID,0,VALID,23.733,VALID,355,VALID,0,
2008-09-09, 02:01:04,VALID,1007.98,VALID,0,VALID,95.0398,VALID,0,VALID,23.7117,VALID,355,VALID,0,
2008-09-09, 02:02:04,VALID,1008,VALID,0,VALID,95.0626,VALID,0,VALID,23.7135,VALID,355,VALID,0.217578,
2008-09-09, 02:03:04,VALID,1008,VALID,0,VALID,95.0626,VALID,0,VALID,23.7135,VALID,355,VALID,0.203125,
2008-09-09, 02:04:04,VALID,1008.01,VALID,0,VALID,95.0626,VALID,0,VALID,23.7135,VALID,355,VALID,0.191406,
2008-09-09, 02:05:04,VALID,1008.01,VALID,0,VALID,95.0626,VALID,0,VALID,23.7135,VALID,355,VALID,0.271484,
2008-09-09, 02:06:04,VALID,1007.99,VALID,0,VALID,95.0931,VALID,0,VALID,23.7543,VALID,355,VALID,0.0558594,
2008-09-09, 02:07:04,VALID,1008.03,VALID,0,VALID,95.0703,VALID,0,VALID,23.733,VALID,355,VALID,0.26875,
2008-09-09, 02:08:04,VALID,1008.01,VALID,0,VALID,95.0703,VALID,0,VALID,23.733,VALID,355,VALID,0.2625,
2008-09-09, 02:09:04,VALID,1007.99,VALID,0,VALID,95.0703,VALID,0,VALID,23.7525,VALID,355,VALID,0.102734,
2008-09-09, 02:10:04,VALID,1007.99,VALID,0,VALID,95.0398,VALID,0,VALID,23.733,VALID,355,VALID,0.0894531,
2008-09-09, 02:11:04,VALID,1007.98,VALID,0,VALID,95.0398,VALID,0,VALID,23.7135,VALID,355,VALID,0.225391,
2008-09-09, 02:12:04,VALID,1007.98,VALID,0,VALID,95.0245,VALID,0,VALID,23.733,VALID,355,VALID,0.162109,
2008-09-09, 02:13:04,VALID,1007.97,VALID,0,VALID,95.0093,VALID,0,VALID,23.694,VALID,355,VALID,0.227734,
2008-09-09, 02:14:04,VALID,1007.97,VALID,0,VALID,94.9711,VALID,0,VALID,23.694,VALID,355,VALID,0.0363281,
2008-09-09, 02:15:04,VALID,1007.93,VALID,0,VALID,94.9711,VALID,0,VALID,23.6745,VALID,355,VALID,0.280078,
2008-09-09, 02:16:04,VALID,1007.89,VALID,0,VALID,94.9711,VALID,0,VALID,23.6763,VALID,355,VALID,0.01875,
2008-09-09, 02:17:04,VALID,1007.92,VALID,0,VALID,94.9559,VALID,0,VALID,23.6532,VALID,355,VALID,0,
2008-09-09, 02:18:04,VALID,1007.9,VALID,0,VALID,94.9559,VALID,0.105969,VALID,23.6532,VALID,355,VALID,0,
2008-09-09, 02:19:04,VALID,1007.88,VALID,0,VALID,94.9483,VALID,0.105969,VALID,23.6338,VALID,355,VALID,0,
2008-09-09, 02:20:04,VALID,1007.86,VALID,0,VALID,94.9559,VALID,0.105969,VALID,23.6338,VALID,355,VALID,0,
2008-09-09, 02:21:04,VALID,1007.87,VALID,0,VALID,94.9483,VALID,0.105969,VALID,23.6338,VALID,355,VALID,0,
2008-09-09, 02:22:04,VALID,1007.84,VALID,0,VALID,94.9559,VALID,0.105969,VALID,23.6338,VALID,355,VALID,0,
2008-09-09, 02:23:04,VALID,1007.85,VALID,0,VALID,94.9559,VALID,0.105969,VALID,23.6143,VALID,355,VALID,0,
2008-09-09, 02:24:04,VALID,1007.82,VALID,0,VALID,94.9635,VALID,0.105969,VALID,23.593,VALID,355,VALID,0,
2008-09-09, 02:25:04,VALID,1007.85,VALID,0,VALID,94.994,VALID,0.105969,VALID,23.6143,VALID,355,VALID,0.228516,
2008-09-09, 02:26:04,VALID,1007.86,VALID,0,VALID,94.9864,VALID,0.105969,VALID,23.6143,VALID,355,VALID,0.145703,
2008-09-09, 02:27:04,VALID,1007.85,VALID,0,VALID,94.994,VALID,0,VALID,23.6143,VALID,355,VALID,0.279687,
2008-09-09, 02:28:04,VALID,1007.87,VALID,0,VALID,94.994,VALID,0.105969,VALID,23.6143,VALID,355,VALID,0.351563,
2008-09-09, 02:29:04,VALID,1007.85,VALID,0,VALID,95.0093,VALID,0.105969,VALID,23.6143,VALID,355,VALID,0.217578,
2008-09-09, 02:30:04,VALID,1007.87,VALID,0,VALID,95.0016,VALID,0.105969,VALID,23.5948,VALID,355,VALID,0.124219,
2008-09-09, 02:31:04,VALID,1007.86,VALID,0,VALID,95.0016,VALID,0,VALID,23.5753,VALID,355,VALID,0,
2008-09-09, 02:32:04,VALID,1007.87,VALID,0,VALID,95.0093,VALID,0,VALID,23.5558,VALID,355,VALID,0,
2008-09-09, 02:33:04,VALID,1007.84,VALID,0,VALID,95.0169,VALID,0.105969,VALID,23.5753,VALID,355,VALID,0,
2008-09-09, 02:34:04,VALID,1007.86,VALID,0,VALID,95.0474,VALID,0.105969,VALID,23.6161,VALID,355,VALID,0,
2008-09-09, 02:35:04,VALID,1007.83,VALID,0,VALID,95.0474,VALID,0.105969,VALID,23.5753,VALID,355,VALID,0,
2008-09-09, 02:36:04,VALID,1007.84,VALID,0,VALID,95.0626,VALID,0.105969,VALID,23.5753,VALID,355,VALID,0.0503906,
2008-09-09, 02:37:04,VALID,1007.85,VALID,0,VALID,95.0703,VALID,0.105969,VALID,23.5753,VALID,355,VALID,0.136719,
2008-09-09, 02:38:04,VALID,1007.85,VALID,0,VALID,95.0931,VALID,0.105969,VALID,23.5966,VALID,355,VALID,0.124609,
2008-09-09, 02:39:04,VALID,1007.88,VALID,0,VALID,95.0931,VALID,0.105969,VALID,23.5753,VALID,355,VALID,0.0351563,
2008-09-09, 02:40:04,VALID,1007.89,VALID,0,VALID,95.1236,VALID,0.105969,VALID,23.5558,VALID,355,VALID,0,
2008-09-09, 02:41:04,VALID,1007.87,VALID,0,VALID,95.1008,VALID,0.105969,VALID,23.5558,VALID,355,VALID,0,
2008-09-09, 02:42:04,VALID,1007.88,VALID,0,VALID,95.116,VALID,0.105969,VALID,23.5771,VALID,355,VALID,0,
2008-09-09, 02:43:04,VALID,1007.88,VALID,0,VALID,95.116,VALID,0.105969,VALID,23.5753,VALID,355,VALID,0,
2008-09-09, 02:44:04,VALID,1007.86,VALID,0,VALID,95.1389,VALID,0.105969,VALID,23.5753,VALID,355,VALID,0,
2008-09-09, 02:45:04,VALID,1007.89,VALID,0,VALID,95.1618,VALID,0.105969,VALID,23.5966,VALID,355,VALID,0,
2008-09-09, 02:46:04,VALID,1007.86,VALID,0,VALID,95.1389,VALID,0.105969,VALID,23.5771,VALID,355,VALID,0,
2008-09-09, 02:47:04,VALID,1007.87,VALID,0,VALID,95.1313,VALID,0,VALID,23.5381,VALID,355,VALID,0,
2008-09-09, 02:48:04,VALID,1007.83,VALID,0,VALID,95.1313,VALID,0,VALID,23.5381,VALID,355,VALID,0,
2008-09-09, 02:49:04,VALID,1007.84,VALID,0,VALID,95.1313,VALID,0,VALID,23.5381,VALID,355,VALID,0.305859,
2008-09-09, 02:50:04,VALID,1007.79,VALID,0,VALID,95.1389,VALID,0,VALID,23.5789,VALID,355,VALID,0.405859,
2008-09-09, 02:51:04,VALID,1007.82,VALID,0,VALID,95.1618,VALID,0,VALID,23.5576,VALID,356,VALID,0.329688,
2008-09-09, 02:52:04,VALID,1007.8,VALID,0,VALID,95.1313,VALID,0,VALID,23.5381,VALID,355,VALID,0.127344,
2008-09-09, 02:53:04,VALID,1007.78,VALID,0,VALID,95.1465,VALID,0,VALID,23.5576,VALID,355,VALID,0,
2008-09-09, 02:54:04,VALID,1007.77,VALID,0,VALID,95.1389,VALID,0,VALID,23.5399,VALID,355,VALID,0,
2008-09-09, 02:55:04,VALID,1007.78,VALID,0,VALID,95.1389,VALID,0,VALID,23.5399,VALID,355,VALID,0,
2008-09-09, 02:56:04,VALID,1007.77,VALID,0,VALID,95.1618,VALID,0,VALID,23.5186,VALID,355,VALID,0,
2008-09-09, 02:57:04,VALID,1007.76,VALID,0,VALID,95.1465,VALID,0,VALID,23.5381,VALID,355,VALID,0,
2008-09-09, 02:58:04,VALID,1007.77,VALID,0,VALID,95.1694,VALID,0,VALID,23.4992,VALID,355,VALID,0,
2008-09-09, 02:59:04,VALID,1007.76,VALID,0,VALID,95.1618,VALID,0,VALID,23.5186,VALID,356,VALID,0,
2008-09-09, 03:00:04,VALID,1007.78,VALID,0,VALID,95.1923,VALID,0,VALID,23.5186,VALID,355,VALID,0,
2008-09-09, 03:01:04,VALID,1007.76,VALID,0,VALID,95.1847,VALID,0,VALID,23.5186,VALID,355,VALID,0,
2008-09-09, 03:02:04,VALID,1007.8,VALID,0,VALID,95.1847,VALID,0.105969,VALID,23.4974,VALID,355,VALID,0,
2008-09-09, 03:03:04,VALID,1007.78,VALID,0,VALID,95.1847,VALID,0,VALID,23.5186,VALID,355,VALID,0,
2008-09-09, 03:04:04,VALID,1007.79,VALID,0,VALID,95.1847,VALID,0.105969,VALID,23.4974,VALID,355,VALID,0,
2008-09-09, 03:05:04,VALID,1007.8,VALID,0,VALID,95.1923,VALID,0.105969,VALID,23.4974,VALID,355,VALID,0,
2008-09-09, 03:06:04,VALID,1007.78,VALID,0,VALID,95.1999,VALID,0,VALID,23.4779,VALID,355,VALID,0,
2008-09-09, 03:07:04,VALID,1007.8,VALID,0,VALID,95.1847,VALID,0,VALID,23.4779,VALID,355,VALID,0,
2008-09-09, 03:08:04,VALID,1007.8,VALID,0,VALID,95.1999,VALID,0.105969,VALID,23.4992,VALID,355,VALID,0,
2008-09-09, 03:09:04,VALID,1007.84,VALID,0,VALID,95.177,VALID,0,VALID,23.4797,VALID,355,VALID,0,
2008-09-09, 03:10:04,VALID,1007.82,VALID,0,VALID,95.2152,VALID,0.105969,VALID,23.4779,VALID,355,VALID,0,
2008-09-09, 03:11:04,VALID,1007.85,VALID,0,VALID,95.2075,VALID,0.105969,VALID,23.4779,VALID,355,VALID,0,
2008-09-09, 03:12:04,VALID,1007.84,VALID,0,VALID,95.2304,VALID,0.105969,VALID,23.4992,VALID,355,VALID,0,
2008-09-09, 03:13:04,VALID,1007.86,VALID,0,VALID,95.238,VALID,0.105969,VALID,23.4779,VALID,355,VALID,0,
2008-09-09, 03:14:04,VALID,1007.87,VALID,0,VALID,95.2304,VALID,0,VALID,23.4584,VALID,355,VALID,0,
2008-09-09, 03:15:04,VALID,1007.86,VALID,0,VALID,95.2228,VALID,0.105969,VALID,23.4779,VALID,355,VALID,0,
2008-09-09, 03:16:04,VALID,1007.87,VALID,0,VALID,95.2533,VALID,0.105969,VALID,23.4584,VALID,355,VALID,0,
2008-09-09, 03:17:04,VALID,1007.89,VALID,0,VALID,95.2533,VALID,0,VALID,23.4797,VALID,355,VALID,0.028125,
2008-09-09, 03:18:04,VALID,1007.86,VALID,0,VALID,95.2533,VALID,0,VALID,23.4797,VALID,355,VALID,0.117578,
2008-09-09, 03:19:04,VALID,1007.85,VALID,0,VALID,95.2609,VALID,0,VALID,23.4797,VALID,355,VALID,0.183984,
2008-09-09, 03:20:04,VALID,1007.84,VALID,0,VALID,95.2762,VALID,0,VALID,23.4797,VALID,355,VALID,0.0773437,
2008-09-09, 03:21:04,VALID,1007.84,VALID,0,VALID,95.2609,VALID,0,VALID,23.4797,VALID,355,VALID,0,
2008-09-09, 03:22:04,VALID,1007.83,VALID,0,VALID,95.2685,VALID,0,VALID,23.4797,VALID,355,VALID,0,
2008-09-09, 03:23:04,VALID,1007.81,VALID,0,VALID,95.2609,VALID,0,VALID,23.4797,VALID,355,VALID,0,
2008-09-09, 03:24:04,VALID,1007.83,VALID,0,VALID,95.2533,VALID,0,VALID,23.4797,VALID,355,VALID,0,
2008-09-09, 03:25:04,VALID,1007.83,VALID,0,VALID,95.2762,VALID,0,VALID,23.4797,VALID,356,VALID,0.366797,
2008-09-09, 03:26:04,VALID,1007.82,VALID,0,VALID,95.2609,VALID,0,VALID,23.4797,VALID,355,VALID,0.321875,
2008-09-09, 03:27:04,VALID,1007.84,VALID,0,VALID,95.2609,VALID,0,VALID,23.4602,VALID,355,VALID,0.322266,
2008-09-09, 03:28:04,VALID,1007.84,VALID,0,VALID,95.2762,VALID,0,VALID,23.5204,VALID,355,VALID,0.240234,
2008-09-09, 03:29:04,VALID,1007.84,VALID,0,VALID,95.2609,VALID,0,VALID,23.5009,VALID,355,VALID,0.168359,
2008-09-09, 03:30:04,VALID,1007.84,VALID,0,VALID,95.2533,VALID,0,VALID,23.4815,VALID,355,VALID,0.104297,
2008-09-09, 03:31:04,VALID,1007.84,VALID,0,VALID,95.2457,VALID,0,VALID,23.4797,VALID,355,VALID,0,
2008-09-09, 03:32:04,VALID,1007.84,VALID,0,VALID,95.238,VALID,0,VALID,23.4797,VALID,355,VALID,0,
2008-09-09, 03:33:04,VALID,1007.83,VALID,0,VALID,95.2304,VALID,0,VALID,23.4797,VALID,355,VALID,0,
2008-09-09, 03:34:04,VALID,1007.83,VALID,0,VALID,95.238,VALID,0.105969,VALID,23.4797,VALID,356,VALID,0,
2008-09-09, 03:35:04,VALID,1007.81,VALID,0,VALID,95.2304,VALID,0.105969,VALID,23.4584,VALID,355,VALID,0,
2008-09-09, 03:36:04,VALID,1007.84,VALID,0,VALID,95.2304,VALID,0.105969,VALID,23.4584,VALID,355,VALID,0,
2008-09-09, 03:37:04,VALID,1007.83,VALID,0,VALID,95.2304,VALID,0.105969,VALID,23.4584,VALID,356,VALID,0,
2008-09-09, 03:38:04,VALID,1007.84,VALID,0,VALID,95.2533,VALID,0.105969,VALID,23.4779,VALID,355,VALID,0,
2008-09-09, 03:39:04,VALID,1007.82,VALID,0,VALID,95.2457,VALID,0.105969,VALID,23.4779,VALID,355,VALID,0,
2008-09-09, 03:40:04,VALID,1007.83,VALID,0,VALID,95.2609,VALID,0,VALID,23.4992,VALID,355,VALID,0,
2008-09-09, 03:41:04,VALID,1007.85,VALID,0,VALID,95.238,VALID,0.105969,VALID,23.4584,VALID,355,VALID,0,
2008-09-09, 03:42:04,VALID,1007.87,VALID,0,VALID,95.2457,VALID,0.105969,VALID,23.4779,VALID,355,VALID,0,
2008-09-09, 03:43:04,VALID,1007.85,VALID,0,VALID,95.2228,VALID,0.105969,VALID,23.4584,VALID,355,VALID,0,
2008-09-09, 03:44:04,VALID,1007.88,VALID,0,VALID,95.238,VALID,0.105969,VALID,23.4779,VALID,355,VALID,0,
2008-09-09, 03:45:04,VALID,1007.87,VALID,0,VALID,95.2304,VALID,0.105969,VALID,23.4584,VALID,355,VALID,0,
2008-09-09, 03:46:04,VALID,1007.88,VALID,0,VALID,95.2304,VALID,0.105969,VALID,23.4584,VALID,355,VALID,0,
2008-09-09, 03:47:04,VALID,1007.9,VALID,0,VALID,95.2304,VALID,0,VALID,23.4407,VALID,355,VALID,0,